Temperature
22 22 22 22 23 23 23 22 22 22 23 22 21 21 22 23 23 23 23 23 23 23 22 22 21 21 21 20 20 19 19 18 18 18 17 17 17 16 16 16 16 15 15 15
22 21 23 24 24 24 23 22 22 21 22 22 21 21 23 23 23 23 23 23 23 23 22 22 21 21 21 20 20 19 19 18 18 18 17 17 17 16 16 16 16 15 16 15
22 22 23 24 23 23 23 22 22 21 22 22 21 21 22 23 23 23 23 24 24 23 22 21 21 21 20 20 20 19 19 18 18 18 17 17 17 17 16 16 16 16 15 15
22 23 23 23 23 23 22 22 22 22 21 21 22 20 21 22 23 23 24 24 24 23 22 22 21 21 20 20 20 19 19 18 18 18 17 17 17 17 16 16 16 16 15 15
22 23 23 22 22 23 22 23 22 22 21 21 22 21 22 23 23 23 24 24 24 23 22 22 21 21 20 20 20 19 19 18 18 18 17 17 17 17 16 16 16 16 15 15
23 23 23 23 23 23 22 22 22 21 21 20 22 22 22 23 23 23 24 24 24 23 22 22 21 20 20 20 19 19 19 18 18 18 17 17 17 17 16 16 16 16 15 15
22 22 23 23 22 22 22 21 20 20 19 20 22 22 23 24 25 25 24 24 24 23 22 21 21 20 20 19 19 19 19 18 18 18 17 17 17 17 16 16 16 16 15 15
21 21 22 23 22 21 21 21 20 19 20 21 23 22 24 26 26 25 24 24 23 23 22 21 21 20 20 19 19 19 18 18 18 18 17 17 17 17 16 16 16 16 16 15
22 21 23 23 23 23 21 21 21 21 21 21 22 23 24 25 25 25 25 24 23 23 22 21 21 20 20 19 19 19 19 18 18 18 17 17 17 17 17 16 16 16 16 15
22 21 22 23 22 22 22 22 21 21 20 21 22 23 23 24 24 25 25 24 24 23 22 21 20 20 19 19 19 19 18 18 18 18 17 17 17 17 17 16 16 16 16 15
23 21 21 22 21 21 22 22 22 22 22 21 21 23 26 25 25 25 25 25 24 23 22 21 20 20 19 19 19 19 18 18 18 18 17 17 17 17 17 16 16 16 16 15
23 22 21 22 23 23 23 23 23 21 22 22 22 23 26 26 26 25 25 25 24 23 22 21 20 20 19 19 19 18 18 18 18 18 18 17 17 17 17 16 16 16 16 15
23 22 21 21 22 22 22 23 24 23 22 22 22 23 26 26 26 26 25 25 24 23 22 21 20 20 19 19 19 19 18 18 18 18 18 17 17 17 17 16 16 16 15 15
23 22 21 21 21 22 22 23 24 23 22 23 23 24 26 26 26 26 25 25 24 23 22 21 20 20 19 19 19 19 18 18 18 18 17 17 17 17 16 16 16 16 15 15
24 22 23 23 23 23 23 24 24 24 24 23 24 24 25 26 26 26 25 25 24 23 22 21 20 20 19 19 19 18 18 18 18 18 17 17 17 17 16 16 16 15 15 15
24 23 23 23 23 24 24 24 24 24 24 24 25 25 27 27 26 26 25 25 23 23 22 21 20 20 19 19 19 19 18 18 18 18 17 17 17 17 16 16 16 15 15 15
24 23 22 22 23 23 23 24 24 25 25 25 24 25 27 26 26 26 25 24 24 23 22 21 21 20 19 19 19 19 18 18 18 17 17 17 17 16 16 16 15 15 15 15
24 23 23 22 22 21 24 26 25 25 25 26 26 26 27 26 26 26 25 24 24 23 22 22 21 20 20 20 19 19 18 18 18 17 17 17 17 16 16 16 15 15 14 14
25 24 23 22 21 23 24 25 25 25 25 26 26 26 27 27 26 25 25 24 23 23 22 22 21 21 20 20 19 18 18 18 17 17 17 17 16 16 16 16 15 15 14 14
25 24 23 22 21 21 24 26 26 26 24 26 26 26 26 26 24 24 25 24 23 23 22 22 21 21 20 20 19 18 18 18 17 17 17 17 16 16 16 15 15 14 14 14
23 23 22 22 22 23 25 25 26 24 24 25 26 26 26 25 24 24 24 23 23 22 22 21 21 20 20 19 19 18 18 17 17 17 17 16 16 16 16 15 15 14 14 13
24 23 23 23 22 22 25 25 25 24 25 25 25 25 24 24 24 23 23 22 22 22 21 21 20 20 20 19 19 18 18 17 17 17 17 16 16 16 15 15 14 14 14 13
25 24 24 24 23 24 24 24 24 24 24 24 24 24 23 23 23 23 22 22 21 21 21 20 20 20 19 19 18 18 18 17 17 17 16 16 16 15 15 15 14 14 13 13
25 26 25 24 24 24 24 24 23 23 23 23 23 23 22 22 22 22 21 21 20 20 20 20 19 19 19 18 18 18 17 17 17 17 16 16 15 15 15 14 14 14 13 13
23 24 24 24 24 24 23 23 23 22 22 22 22 22 22 22 21 21 21 20 20 19 19 19 19 18 18 18 17 17 17 17 16 16 16 15 15 15 14 14 14 14 13 13
23 23 23 22 23 23 22 22 22 22 21 21 21 21 21 21 21 21 20 20 19 19 19 19 18 18 18 17 17 17 16 16 16 16 15 15 14 14 14 14 13 13 13 12
Wind_Speed
6 6 7 7 8 7 5 7 6 6 6 6 6 8 11 10 9 9 9 9 10 10 10 9 9 8 7 8 9 8 6 6 5 3 3 3 3 4 4 5 7 9 10 10
5 7 5 3 5 5 4 6 6 5 5 4 6 8 10 10 10 8 8 9 10 10 11 10 9 7 7 7 7 8 7 6 6 3 3 3 3 4 4 3 6 9 10 10
5 3 4 4 3 4 3 5 6 5 4 4 5 6 9 9 9 8 8 8 10 11 13 11 10 8 7 7 6 7 7 7 6 4 3 4 3 2 3 4 3 5 8 9
3 3 4 4 5 5 3 4 6 6 5 4 7 4 7 11 10 10 9 8 9 10 11 10 9 9 8 7 6 7 6 7 6 5 4 3 3 3 3 3 2 4 7 7
3 5 5 4 3 2 2 4 4 5 3 3 5 3 6 13 13 12 11 9 9 10 12 11 9 9 8 7 6 6 7 7 6 6 4 3 4 3 3 3 3 4 4 5
3 3 3 3 3 3 4 4 2 2 2 5 8 5 5 11 14 14 13 12 10 11 12 11 10 9 8 7 6 7 8 7 5 5 4 3 5 5 4 3 2 3 3 3
5 5 4 5 5 5 6 4 2 3 3 4 6 6 5 9 13 14 14 13 12 11 12 12 11 10 9 8 7 7 8 7 5 4 4 4 4 4 3 3 2 2 3 2
6 6 7 6 5 6 8 6 3 2 3 3 6 5 4 7 10 12 13 13 13 13 12 12 12 11 10 9 8 8 8 7 5 4 4 5 4 2 3 2 2 3 3 3
3 4 7 7 5 5 6 6 5 3 4 3 4 3 4 6 10 12 13 13 13 13 11 12 12 11 11 10 9 8 9 8 6 5 4 5 5 3 3 2 3 3 3 3
2 3 7 6 5 6 5 5 4 4 3 3 5 7 7 11 11 11 12 13 13 13 13 12 11 11 11 10 9 9 9 8 7 5 5 5 4 4 4 3 4 4 4 3
3 3 6 7 7 9 9 8 6 4 4 2 1 1 5 11 12 11 12 13 13 13 13 12 11 11 11 10 10 9 9 8 7 6 5 6 4 4 4 4 3 3 3 2
4 2 6 9 8 8 9 10 8 4 4 3 2 2 4 7 10 10 11 12 13 13 12 12 12 11 10 10 10 10 9 8 7 6 6 6 5 4 4 4 3 2 3 2
4 3 3 5 6 7 8 11 10 7 5 5 3 2 5 7 8 9 10 11 12 13 13 12 12 11 11 10 10 9 9 8 8 6 6 6 6 5 4 4 3 2 3 3
2 4 5 4 4 7 9 11 11 9 6 6 5 4 5 7 7 9 9 10 11 12 13 13 12 12 11 10 10 9 9 9 8 7 7 6 6 6 5 4 3 3 3 3
4 6 7 6 6 7 9 10 12 12 11 8 7 6 5 5 6 8 10 11 12 12 13 14 13 12 12 11 11 10 9 9 9 8 7 6 6 6 5 5 4 3 3 3
8 7 7 8 8 9 8 10 11 11 11 10 10 8 4 5 5 7 9 11 12 13 13 13 14 13 13 13 12 11 10 10 10 9 8 7 7 7 6 5 4 3 3 3
9 9 7 6 6 6 8 10 11 11 10 10 9 7 3 4 6 7 8 9 11 12 12 13 13 13 13 13 13 12 12 10 10 10 8 8 7 7 6 6 5 4 3 3
9 8 4 5 5 7 5 4 6 7 8 8 7 5 4 4 5 6 6 9 10 11 12 12 12 12 12 12 11 11 11 11 10 10 9 9 8 8 6 6 5 4 3 3
9 6 4 4 6 7 6 4 5 5 6 6 6 5 5 4 3 4 6 9 10 10 10 10 11 11 11 12 12 12 12 11 10 10 10 10 9 8 7 6 5 4 3 3
8 7 5 5 5 4 2 1 1 3 3 4 4 3 3 4 4 3 4 8 8 8 8 9 9 10 11 11 12 13 12 11 11 10 10 10 9 9 8 7 5 4 3 3
9 8 8 8 7 5 2 1 1 2 1 4 4 2 1 2 3 4 5 7 7 7 8 8 9 9 10 11 12 12 12 11 10 10 10 9 9 9 8 6 5 5 4 4
8 7 8 7 7 4 1 0 0 3 5 5 6 6 5 5 5 5 5 5 6 7 8 8 8 8 8 11 12 11 10 10 10 10 10 9 9 9 8 7 6 5 5 5
6 5 3 3 2 3 3 2 4 5 5 6 5 5 4 3 3 3 4 5 6 7 7 7 7 7 7 9 10 11 10 11 12 11 10 9 9 8 8 7 6 5 5 5
4 3 3 3 2 3 2 2 3 3 4 4 4 4 2 1 1 2 4 4 5 5 6 6 7 8 7 8 8 8 9 11 12 12 10 9 9 8 8 7 6 5 5 5
3 2 4 5 2 1 1 3 4 4 3 3 3 2 2 0 1 1 3 4 5 6 6 6 7 7 7 8 8 8 10 11 11 11 10 9 8 8 7 7 6 6 5 6
6 4 4 2 2 3 2 3 3 3 4 3 3 3 2 0 1 1 2 4 5 6 6 6 6 6 8 8 8 9 10 10 11 10 10 8 7 7 7 6 5 5 6 8
Wind_Direction
202 220 220 208 214 227 200 186 159 146 152 153 162 167 173 180 178 178 178 171 163 153 146 134 129 129 130 125 121 123 126 109 93 68 71 75 71 68 60 61 43 33 34 25
200 223 229 220 213 226 215 160 135 132 149 160 172 186 180 186 186 184 180 174 166 152 144 140 141 139 133 122 124 128 118 105 97 83 91 96 86 86 85 62 46 44 39 26
207 199 204 206 200 200 203 169 153 153 161 173 179 188 185 189 187 185 193 188 164 155 151 153 149 140 131 128 125 117 117 112 105 100 79 75 73 73 79 75 55 49 50 38
210 218 196 201 207 199 183 144 153 164 173 188 193 187 199 191 193 190 191 186 170 159 151 149 150 145 140 131 125 124 117 109 106 102 87 94 94 88 81 83 83 75 62 50
197 193 199 196 201 191 142 135 154 176 202 237 225 208 199 189 188 188 188 184 171 157 153 153 152 144 138 130 126 118 112 106 107 104 92 72 71 80 76 81 78 83 68 57
203 195 194 172 146 135 140 140 153 208 234 240 232 221 199 193 186 183 184 183 172 160 153 154 146 137 129 125 122 115 113 108 109 113 119 106 90 87 80 77 65 84 81 57
196 184 174 165 155 164 182 183 185 201 209 231 218 223 212 198 181 178 180 178 170 163 162 158 150 145 141 140 139 133 130 129 132 137 135 120 105 104 96 93 85 83 84 73
202 188 184 194 198 186 198 208 203 207 218 218 204 216 194 178 167 169 174 172 168 169 167 159 155 150 151 152 153 150 144 141 147 155 141 122 115 106 95 82 90 82 87 87
222 181 175 186 205 194 197 211 235 269 265 251 207 176 156 155 162 170 172 168 170 168 163 157 155 155 156 159 159 156 153 152 156 163 136 117 111 100 98 87 80 74 79 77
234 169 171 176 198 227 228 223 225 229 230 230 216 191 178 171 173 172 170 170 168 167 164 159 158 160 161 161 162 164 160 156 157 160 144 127 127 114 101 82 69 66 66 58
220 190 175 178 204 210 210 226 235 251 247 247 241 222 172 174 176 180 176 170 168 165 163 160 159 159 155 156 160 163 160 156 158 159 141 130 129 124 115 98 87 76 77 75
219 225 198 203 210 226 230 226 222 235 268 276 254 258 169 162 171 176 177 171 167 164 160 157 156 155 155 161 166 166 164 157 155 152 137 134 137 132 125 116 111 104 84 72
203 227 208 194 201 209 230 233 230 234 251 258 246 221 163 152 164 171 170 164 164 160 158 157 158 160 163 166 167 165 160 154 150 148 148 145 142 139 135 126 120 109 92 82
228 237 228 219 223 209 218 224 226 233 241 251 248 212 174 164 169 167 163 160 159 163 162 161 163 165 166 168 167 164 157 152 152 152 155 156 150 143 134 119 114 103 95 89
227 252 253 249 244 240 226 225 225 231 243 251 252 246 215 179 176 166 165 164 164 167 167 166 169 168 168 170 169 164 158 157 159 158 162 163 146 135 125 117 114 96 86 87
227 250 257 264 258 247 242 238 231 232 239 253 256 252 222 188 179 171 173 170 172 171 175 172 173 171 175 176 173 165 163 164 163 165 164 148 139 133 133 134 131 114 94 79
219 239 261 272 263 251 245 239 235 233 232 240 251 251 224 190 182 183 176 174 178 174 177 176 178 176 180 181 175 167 167 165 167 163 153 146 145 142 143 141 126 124 120 100
225 237 251 266 270 254 257 230 225 237 244 245 252 250 232 210 184 179 173 174 177 176 178 177 179 176 178 176 167 163 163 167 166 160 153 152 149 146 144 139 144 153 142 128
227 236 250 257 263 263 259 228 208 225 251 254 253 253 234 206 172 187 185 176 178 178 176 176 178 173 174 171 165 163 167 168 165 162 159 158 155 153 151 153 159 158 145 144
223 235 244 251 259 265 291 347 225 235 265 301 273 255 220 183 190 188 170 161 163 164 164 167 168 168 171 167 161 164 169 169 168 163 160 158 155 154 158 161 159 151 148 154
208 220 234 247 252 259 299 18 236 208 340 350 359 11 360 123 112 110 117 138 147 149 151 154 160 166 167 161 160 168 172 173 163 155 153 153 152 156 157 157 156 156 159 165
207 210 225 234 241 249 80 189 27 32 23 25 28 28 41 57 63 83 105 124 140 143 145 152 158 160 159 159 163 171 171 161 150 149 150 153 155 162 162 157 165 170 167 174
222 217 222 225 187 100 98 56 40 24 13 20 28 32 40 51 58 77 110 126 138 144 151 154 156 157 158 162 167 172 162 150 150 151 155 158 160 162 159 163 172 175 177 184
258 241 235 236 184 121 111 57 37 27 15 15 13 14 16 20 46 110 125 133 141 148 154 157 159 164 168 168 168 164 153 152 154 159 164 166 168 169 170 173 179 181 188 193
308 305 267 260 277 21 35 45 31 20 8 0 2 352 335 305 149 145 147 150 157 160 162 165 171 174 174 169 168 160 157 158 163 167 171 174 175 174 176 178 184 190 194 191
282 277 262 277 319 315 6 33 28 19 8 3 2 358 350 51 123 138 142 141 148 157 161 169 174 175 177 176 175 167 164 167 171 175 178 179 176 175 176 176 184 194 192 188
Height
1506 1508 1508 1506 1504 1504 1506 1511 1515 1516 1514 1519 1524 1526 1526 1527 1529 1531 1533 1535 1538 1541 1544 1547 1549 1551 1553 1555 1556 1557 1558 1559 1560 1560 1560 1561 1560 1560 1559 1559 1558 1557 1556 1556
1507 1508 1503 1501 1501 1502 1505 1512 1517 1518 1516 1519 1524 1526 1524 1525 1527 1529 1531 1533 1536 1539 1543 1546 1549 1552 1553 1555 1556 1557 1559 1560 1560 1561 1561 1561 1561 1561 1561 1560 1560 1559 1558 1557
1506 1504 1501 1502 1503 1505 1508 1513 1517 1519 1519 1520 1525 1529 1525 1524 1526 1528 1529 1532 1534 1538 1542 1546 1549 1551 1553 1555 1557 1558 1559 1560 1561 1561 1562 1562 1562 1562 1562 1562 1561 1560 1559 1558
1505 1503 1503 1504 1506 1507 1514 1510 1514 1518 1523 1527 1526 1538 1527 1523 1524 1526 1528 1530 1533 1536 1540 1544 1548 1550 1553 1555 1557 1558 1559 1560 1561 1562 1562 1563 1563 1563 1564 1563 1563 1562 1561 1560
1505 1503 1504 1507 1507 1507 1512 1511 1514 1518 1523 1527 1523 1531 1527 1519 1522 1523 1525 1528 1531 1535 1539 1543 1546 1549 1552 1554 1556 1558 1559 1560 1561 1562 1563 1563 1564 1564 1564 1564 1564 1564 1563 1562
1503 1502 1503 1506 1507 1509 1512 1514 1518 1519 1525 1536 1525 1528 1528 1515 1515 1518 1521 1525 1529 1533 1537 1541 1545 1548 1550 1553 1555 1557 1558 1559 1561 1562 1563 1564 1564 1565 1565 1565 1565 1565 1564 1564
1506 1504 1505 1506 1510 1512 1514 1522 1535 1539 1541 1535 1518 1522 1519 1505 1505 1511 1517 1522 1526 1531 1535 1539 1543 1546 1548 1551 1554 1556 1557 1559 1561 1562 1563 1564 1565 1565 1565 1566 1566 1566 1565 1565
1511 1513 1505 1505 1508 1513 1515 1519 1534 1543 1540 1529 1517 1519 1507 1498 1501 1507 1513 1518 1523 1529 1533 1537 1540 1543 1546 1550 1552 1555 1556 1558 1560 1562 1564 1564 1565 1566 1566 1566 1567 1567 1566 1566
1507 1510 1502 1504 1505 1508 1515 1518 1518 1526 1527 1529 1519 1510 1503 1498 1501 1505 1510 1515 1520 1525 1530 1534 1538 1541 1545 1548 1551 1553 1555 1558 1560 1562 1563 1564 1565 1566 1566 1567 1567 1567 1567 1567
1500 1509 1505 1505 1507 1508 1509 1512 1517 1524 1532 1534 1521 1512 1510 1503 1502 1503 1507 1512 1518 1523 1528 1532 1536 1539 1543 1546 1549 1552 1555 1557 1559 1561 1563 1564 1565 1566 1566 1567 1567 1568 1568 1567
1497 1507 1509 1507 1510 1510 1511 1512 1512 1513 1514 1526 1528 1516 1491 1494 1497 1501 1504 1509 1515 1520 1525 1529 1533 1537 1541 1544 1547 1551 1553 1556 1558 1560 1562 1563 1564 1565 1566 1567 1567 1568 1568 1568
1496 1502 1509 1506 1501 1501 1502 1504 1508 1519 1518 1512 1518 1514 1486 1489 1493 1497 1502 1507 1512 1517 1522 1527 1531 1535 1539 1542 1545 1548 1551 1554 1556 1558 1560 1562 1563 1564 1565 1566 1567 1567 1568 1568
1494 1501 1512 1512 1510 1504 1503 1500 1500 1504 1510 1514 1519 1512 1486 1488 1491 1496 1500 1505 1510 1515 1520 1525 1529 1532 1536 1540 1543 1546 1549 1552 1554 1557 1559 1560 1562 1563 1564 1565 1566 1567 1567 1567
1493 1498 1506 1514 1508 1501 1501 1498 1497 1501 1510 1510 1506 1500 1490 1490 1491 1494 1498 1503 1508 1512 1517 1522 1526 1530 1534 1537 1541 1544 1547 1549 1552 1554 1557 1559 1560 1562 1563 1564 1565 1566 1566 1567
1492 1497 1495 1494 1492 1492 1494 1494 1494 1497 1498 1502 1499 1495 1490 1488 1490 1492 1496 1501 1505 1510 1514 1518 1522 1526 1530 1534 1538 1541 1544 1547 1549 1552 1554 1556 1558 1560 1561 1562 1564 1565 1565 1566
1490 1493 1493 1494 1489 1488 1491 1489 1488 1490 1490 1492 1491 1490 1483 1485 1488 1491 1495 1498 1502 1506 1511 1515 1519 1523 1527 1530 1534 1537 1540 1544 1546 1549 1551 1554 1556 1557 1559 1560 1562 1563 1564 1564
1487 1490 1495 1498 1489 1489 1495 1486 1484 1485 1483 1486 1489 1485 1481 1483 1486 1489 1492 1495 1498 1502 1507 1511 1516 1519 1523 1527 1530 1533 1537 1540 1544 1546 1549 1551 1553 1555 1557 1558 1560 1561 1562 1563
1483 1486 1491 1496 1497 1507 1488 1474 1476 1479 1479 1478 1478 1477 1479 1481 1484 1486 1489 1493 1496 1500 1504 1508 1512 1516 1520 1524 1528 1531 1534 1537 1540 1543 1545 1548 1550 1552 1554 1556 1558 1559 1560 1561
1477 1483 1491 1496 1501 1493 1480 1473 1474 1479 1480 1475 1475 1475 1477 1479 1482 1485 1487 1490 1493 1497 1501 1504 1508 1513 1517 1521 1524 1527 1531 1534 1537 1540 1542 1545 1547 1549 1552 1553 1555 1556 1558 1559
1475 1478 1487 1493 1501 1502 1484 1472 1471 1476 1483 1474 1473 1474 1475 1477 1483 1485 1485 1487 1491 1494 1498 1502 1506 1510 1513 1517 1521 1524 1527 1530 1533 1536 1539 1542 1544 1547 1549 1551 1552 1554 1555 1556
1479 1482 1488 1491 1494 1488 1475 1472 1472 1487 1486 1475 1473 1474 1475 1476 1480 1483 1484 1486 1489 1492 1496 1499 1503 1507 1510 1514 1517 1520 1524 1527 1530 1534 1537 1539 1542 1544 1546 1548 1550 1551 1553 1554
1475 1481 1483 1484 1491 1491 1473 1473 1476 1479 1476 1476 1476 1477 1477 1478 1480 1482 1483 1485 1488 1490 1493 1497 1500 1504 1507 1511 1514 1517 1520 1524 1527 1531 1534 1536 1539 1541 1543 1545 1547 1548 1550 1551
1464 1468 1471 1475 1479 1474 1473 1474 1476 1476 1477 1477 1478 1479 1479 1480 1481 1483 1484 1485 1487 1489 1492 1495 1498 1501 1505 1508 1511 1514 1518 1521 1524 1527 1530 1533 1535 1538 1540 1542 1544 1545 1546 1547
1460 1461 1465 1468 1469 1471 1473 1474 1475 1476 1477 1478 1478 1479 1480 1481 1482 1482 1484 1485 1487 1489 1491 1493 1496 1499 1502 1505 1508 1512 1515 1518 1521 1524 1526 1529 1532 1534 1536 1538 1540 1541 1543 1544
1463 1463 1465 1467 1468 1470 1472 1474 1475 1476 1477 1478 1478 1479 1479 1480 1481 1482 1483 1484 1486 1488 1490 1492 1494 1496 1499 1503 1506 1509 1512 1514 1517 1520 1523 1525 1528 1530 1532 1534 1536 1537 1539 1540
1465 1466 1468 1471 1470 1471 1473 1473 1474 1475 1476 1477 1477 1478 1478 1479 1479 1481 1482 1483 1484 1486 1488 1490 1492 1494 1497 1500 1503 1505 1508 1510 1513 1516 1518 1521 1523 1526 1528 1530 1532 1533 1535 1536